{"data":{"norad_id":55932,"intl_designator":"2023-037U","name":"STARLINK-5848","alt_names":[],"object_type":"PAYLOAD","status":"ACTIVE","operator":null,"country":"US","launch_date":"2023-03-17","launch_site_code":"AFWTR","launch_vehicle":null,"mission":null,"orbit_class":"UNKNOWN","rcs_meters":null,"size_class":null,"mass_kg":null,"dimensions":null,"purposes":["comms"],"wikipedia_slug":null,"has_3d_model":false,"image_url":null,"decayed_at":null,"tle_current":{"epoch":"2026-09-20T22:25:29.803008Z","epoch_age_seconds":68647,"freshness":"FRESH","line1":"1 55932U 23037U   26263.93437272  .00000271  00000+0  30530-4 0  9999","line2":"2 55932  69.9985 131.9867 0002564 269.0720  91.0145 14.98323354193724","mean_motion":14.98323354,"eccentricity":0.0002564,"inclination_deg":69.9985,"raan_deg":131.9867,"arg_perigee_deg":269.072,"mean_anomaly_deg":91.0145,"bstar":3.053e-5,"rev_number":19372,"period_min":96.107425420267,"perigee_km":570.29440850031,"apogee_km":573.858477954,"semimajor_km":6950.2134432272,"source":"CELESTRAK","updated_at":"2026-09-21T09:00:33.325687Z"}}}